Almeria, Spain

1:42 PM CET en Febrero 17, 2019 (GMT +0100)
Almeria

Tiempo Historia de LEAM - Febrero, 2019

Change the Weather History Date:

Martes, Febrero 12, 2019

  Actual Average Record
Temperature  
Temperatura media 60 ° F -  
Temperatura máxima 66 ° F 61 ° F 71 ° F (2017)
Temperatura mínima 55 ° F 49 ° F 37 ° F (2012)
Degree Days  
Grados día de calefacción 4    
Growing Degree Days 10 (Base 50)    
Moisture  
Punto de rocío 45 ° F    
Average Humidity 59    
Maximum Humidity 82    
Minimum Humidity 30    
Precipitación  
Precipitación 0.00 pul 0.02 pul - ()
Presión al nivel del mar  
Presión al nivel del mar 30.42 pul    
Viento  
Velocidad del viento 13 mph ()    
Velocidad máxima del viento 22 mph    
Max Gust Speed -    
Visibilidad 6.2 Millas    
Eventos      
Averages and records for this station are not official NWS values.
T = Trace of Precipitation, MM = Missing Value Source: Averaged Metar Reports

Daily Weather History Graph

Daily Weather History Graph

Search for Another Location

Airport or City:

Astronomía

Feb. 12, 2019 Salida Puesta
Hora real 8:01 AM CET 6:46 PM CET
Crepúsculo civil 7:35 AM CET 7:12 PM CET
Crepúsculo náutico 7:04 AM CET 7:43 PM CET
Crepúsculo astronómico 6:34 AM CET 8:13 PM CET
Luna 12:09 PM CET (2/12) 12:57 AM CET (2/12)
Horas de luz 11h 37m
Horas de luz
10h 44m
Creciente, 45% of the Moon is Illuminated
Feb 12
Creciente
Feb 12
Cuarto creciente
Feb 19
Luna llena
Feb 26
Cuarto menguante
Mar 6
Nueva

Hourly Weather History & Observations

Hora (CET) Temp. Punto de rocío Humedad Presión Visibilidad Wind Dir Velocidad del viento Velocidad de ráfagas Precip Eventos Condiciones
12:00 AM 60 ° F 50 ° F 62% 30.37 pul - ENE 15.0 mph - -  
12:00 AM 59.0 ° F 48.2 ° F 67% 30.36 pul 6.2 mi ENE 13.8 mph - N/A   Nublado
12:30 AM 59.0 ° F 51.8 ° F 77% 30.36 pul 6.2 mi ENE 16.1 mph - N/A   Nublado
1:00 AM 60 ° F 53 ° F 72% 30.39 pul - ENE 15.0 mph - -  
1:00 AM 59.0 ° F 51.8 ° F 77% 30.36 pul 6.2 mi ENE 13.8 mph - N/A   Nublado
1:30 AM 59.0 ° F 51.8 ° F 77% 30.39 pul 6.2 mi ENE 11.5 mph - N/A   Nublado
2:00 AM 58 ° F 53 ° F 79% 30.39 pul - ENE 16.1 mph - -  
2:00 AM 59.0 ° F 51.8 ° F 77% 30.39 pul 6.2 mi ENE 15.0 mph - N/A   Nublado
2:30 AM 57.2 ° F 51.8 ° F 82% 30.39 pul 6.2 mi ENE 13.8 mph - N/A   Nublado
3:00 AM 58 ° F 52 ° F 76% 30.39 pul - NE 11.5 mph - -  
3:00 AM 57.2 ° F 51.8 ° F 82% 30.39 pul 6.2 mi NE 10.4 mph - N/A   Muy nublado
3:30 AM 57.2 ° F 50.0 ° F 77% 30.36 pul 6.2 mi NE 9.2 mph - N/A   Nublado
4:00 AM 57 ° F 51 ° F 75% 30.38 pul - ENE 13.8 mph - -  
4:00 AM 57.2 ° F 50.0 ° F 77% 30.36 pul 6.2 mi ENE 12.7 mph - N/A   Nublado
4:30 AM 57.2 ° F 50.0 ° F 77% 30.36 pul 6.2 mi ENE 10.4 mph - N/A   Muy nublado
5:00 AM 57 ° F 49 ° F 68% 30.39 pul - NNE 6.9 mph - -  
5:00 AM 57.2 ° F 48.2 ° F 72% 30.36 pul 6.2 mi NE 6.9 mph - N/A   Muy nublado
5:30 AM 57.2 ° F 44.6 ° F 63% 30.39 pul 6.2 mi NE 10.4 mph - N/A   Muy nublado
6:00 AM 57 ° F 42 ° F 47% 30.39 pul - NE 11.5 mph - -  
6:00 AM 57.2 ° F 41.0 ° F 55% 30.36 pul 6.2 mi NE 10.4 mph - N/A   Parcialmente nublado
6:30 AM 57.2 ° F 41.0 ° F 55% 30.39 pul 6.2 mi NE 10.4 mph - N/A   Muy nublado
7:00 AM 59.0 ° F 41.0 ° F 51% 30.39 pul 6.2 mi NE 9.2 mph - N/A   Muy nublado
7:30 AM 57.2 ° F 42.8 ° F 59% 30.39 pul 6.2 mi ENE 10.4 mph - N/A   Muy nublado
8:00 AM 57 ° F 45 ° F 55% 30.41 pul - ENE 9.2 mph - -  
8:00 AM 57.2 ° F 44.6 ° F 63% 30.39 pul 6.2 mi ENE 8.1 mph - N/A   Muy nublado
8:30 AM 57.2 ° F 44.6 ° F 63% 30.42 pul 6.2 mi ENE 6.9 mph - N/A   Muy nublado
9:00 AM 59 ° F 47 ° F 53% 30.44 pul - NE 9.2 mph - -  
9:00 AM 59.0 ° F 46.4 ° F 63% 30.42 pul 6.2 mi NE 9.2 mph - N/A   Muy nublado
9:30 AM 60.8 ° F 44.6 ° F 55% 30.45 pul 6.2 mi ENE 11.5 mph - N/A   Muy nublado
10:00 AM 60 ° F 44 ° F 44% 30.46 pul 28 mi ENE 17.3 mph - -   Nubes dispersas
10:00 AM 59.0 ° F 42.8 ° F 55% 30.45 pul 6.2 mi ENE 16.1 mph - N/A   Muy nublado
11:00 AM 60.8 ° F 41.0 ° F 48% 30.48 pul 6.2 mi ENE 17.3 mph - N/A   Muy nublado
12:00 PM 60.8 ° F 42.8 ° F 52% 30.48 pul 6.2 mi ENE 15.0 mph - N/A   Nubes dispersas
12:30 PM 62.6 ° F 42.8 ° F 48% 30.48 pul 6.2 mi ENE 16.1 mph - N/A   Nubes dispersas
1:00 PM 65 ° F 43 ° F 33% 30.47 pul 28 mi ENE 16.1 mph - -   Nubes dispersas
1:00 PM 64.4 ° F 41.0 ° F 42% 30.45 pul 6.2 mi ENE 15.0 mph - N/A   Parcialmente nublado
1:30 PM 64.4 ° F 42.8 ° F 45% 30.45 pul 6.2 mi Este 18.4 mph - N/A   Parcialmente nublado
2:00 PM 66 ° F 42 ° F 30% 30.44 pul - ENE 18.4 mph - -  
2:00 PM 64.4 ° F 41.0 ° F 42% 30.42 pul 6.2 mi Este 17.3 mph - N/A   Parcialmente nublado
2:30 PM 64.4 ° F 41.0 ° F 42% 30.42 pul 6.2 mi Este 19.6 mph - N/A   Parcialmente nublado
3:00 PM 65 ° F 42 ° F 32% 30.44 pul - Este 20.7 mph - -  
3:00 PM 64.4 ° F 41.0 ° F 42% 30.42 pul 6.2 mi Este 20.7 mph - N/A   Parcialmente nublado
3:30 PM 64.4 ° F 39.2 ° F 40% 30.42 pul 6.2 mi Este 21.9 mph - N/A   Parcialmente nublado
4:00 PM 64.4 ° F 41.0 ° F 42% 30.42 pul 6.2 mi Este 21.9 mph - N/A   Parcialmente nublado
4:30 PM 62.6 ° F 41.0 ° F 45% 30.42 pul 6.2 mi Este 20.7 mph - N/A   Parcialmente nublado
5:00 PM 62.6 ° F 41.0 ° F 45% 30.42 pul 6.2 mi Este 19.6 mph - N/A   Parcialmente nublado
5:30 PM 62.6 ° F 41.0 ° F 45% 30.42 pul 6.2 mi Este 19.6 mph - N/A   Parcialmente nublado
6:00 PM 62 ° F 42 ° F 36% 30.44 pul - Este 18.4 mph - -  
6:00 PM 60.8 ° F 41.0 ° F 48% 30.42 pul 6.2 mi Este 18.4 mph - N/A   Parcialmente nublado
6:30 PM 59.0 ° F 42.8 ° F 55% 30.45 pul 6.2 mi Este 17.3 mph - N/A   Parcialmente nublado
7:00 PM 58 ° F 45 ° F 52% 30.46 pul 28 mi Este 13.8 mph - -   Nubes dispersas
7:00 PM 57.2 ° F 44.6 ° F 63% 30.45 pul 6.2 mi Este 13.8 mph - N/A   Parcialmente nublado
7:30 PM 57.2 ° F 46.4 ° F 67% 30.45 pul 6.2 mi Este 12.7 mph - N/A   Parcialmente nublado
8:00 PM 56 ° F 48 ° F 67% 30.47 pul - ENE 12.7 mph - -  
8:00 PM 55.4 ° F 46.4 ° F 72% 30.45 pul 6.2 mi ENE 11.5 mph - N/A   Parcialmente nublado
8:30 PM 55.4 ° F 44.6 ° F 67% 30.45 pul 6.2 mi ENE 11.5 mph - N/A   Parcialmente nublado
9:00 PM 55 ° F 45 ° F 60% 30.48 pul - NE 10.4 mph - -  
9:00 PM 55.4 ° F 44.6 ° F 67% 30.45 pul 6.2 mi ENE 10.4 mph - N/A   Parcialmente nublado
9:30 PM 55.4 ° F 44.6 ° F 67% 30.48 pul 6.2 mi NE 11.5 mph - N/A   Parcialmente nublado
10:00 PM 55 ° F 46 ° F 64% 30.49 pul 25 mi NNE 8.1 mph - -   Nubes dispersas
10:00 PM 55.4 ° F 44.6 ° F 67% 30.48 pul 6.2 mi NE 8.1 mph - N/A   Parcialmente nublado
10:30 PM 55.4 ° F 44.6 ° F 67% 30.48 pul 6.2 mi NNE 8.1 mph - N/A   Parcialmente nublado
11:00 PM 55.4 ° F 46.4 ° F 72% 30.48 pul 6.2 mi NE 8.1 mph - N/A   Desconocido
11:30 PM 55.4 ° F 46.4 ° F 72% 30.48 pul 6.2 mi NNE 8.1 mph - N/A   Desconocido